{"data":{"norad_id":58349,"intl_designator":"2023-176A","name":"HAIYANG-3A","alt_names":[],"object_type":"PAYLOAD","status":"ACTIVE","operator":null,"country":"PRC","launch_date":"2023-11-16","launch_site_code":"JSC","launch_vehicle":null,"mission":null,"orbit_class":"UNKNOWN","rcs_meters":null,"size_class":null,"mass_kg":null,"dimensions":null,"purposes":[],"wikipedia_slug":null,"has_3d_model":false,"image_url":null,"decayed_at":null,"tle_current":{"epoch":"2026-09-21T22:28:08.672736Z","epoch_age_seconds":117974,"freshness":"FRESH","line1":"1 58349U 23176A   26264.93621149  .00000021  00000+0  23087-4 0  9999","line2":"2 58349  98.5397 341.7677 0010714  97.6947 262.5455 14.34143882149182","mean_motion":14.34143882,"eccentricity":0.0010714,"inclination_deg":98.5397,"raan_deg":341.7677,"arg_perigee_deg":97.6947,"mean_anomaly_deg":262.5455,"bstar":2.3087e-5,"rev_number":14918,"period_min":100.40833545877,"perigee_km":770.2458749267,"apogee_km":785.57985858118,"semimajor_km":7156.0498667539,"source":"CELESTRAK","updated_at":"2026-09-22T09:00:26.585016Z"}}}